Year,Month,Day,Hour,Minute,Value (Times are PST for temperature in C)
2008,06,23,00,00,9.70
2008,06,23,00,01,9.70
2008,06,23,00,02,9.70
2008,06,23,00,03,9.70
2008,06,23,00,04,9.70
2008,06,23,00,05,9.70
2008,06,23,00,06,9.60
2008,06,23,00,07,9.60
2008,06,23,00,08,9.70
2008,06,23,00,09,9.70
2008,06,23,00,10,9.70
2008,06,23,00,11,9.70
2008,06,23,00,12,9.70
2008,06,23,00,13,9.70
2008,06,23,00,14,9.70
2008,06,23,00,15,9.70
2008,06,23,00,16,9.70
2008,06,23,00,17,9.70
2008,06,23,00,18,9.70
2008,06,23,00,19,9.70
2008,06,23,00,20,9.70
2008,06,23,00,21,9.70
2008,06,23,00,22,9.70
2008,06,23,00,23,9.70
2008,06,23,00,24,9.70
2008,06,23,00,25,9.70
2008,06,23,00,26,9.80
2008,06,23,00,27,9.80
2008,06,23,00,28,9.80
2008,06,23,00,29,9.80
2008,06,23,00,30,9.80
2008,06,23,00,31,9.80
2008,06,23,00,32,9.80
2008,06,23,00,33,9.80
2008,06,23,00,34,9.80
2008,06,23,00,35,9.80
2008,06,23,00,36,9.70
2008,06,23,00,37,9.70
2008,06,23,00,38,9.70
2008,06,23,00,39,9.70
2008,06,23,00,40,9.70
2008,06,23,00,41,9.70
2008,06,23,00,42,9.70
2008,06,23,00,43,9.70
2008,06,23,00,44,9.70
2008,06,23,00,45,9.70
2008,06,23,00,46,9.60
2008,06,23,00,47,9.60
2008,06,23,00,48,9.60
2008,06,23,00,49,9.50
2008,06,23,00,50,9.50
2008,06,23,00,51,9.50
2008,06,23,00,52,9.50
2008,06,23,00,53,9.50
2008,06,23,00,54,9.50
2008,06,23,00,55,9.50
2008,06,23,00,56,9.50
2008,06,23,00,57,9.50
2008,06,23,00,58,9.50
2008,06,23,00,59,9.50
2008,06,23,01,00,9.50
2008,06,23,01,01,9.50
2008,06,23,01,02,9.50
2008,06,23,01,03,9.50
2008,06,23,01,04,9.50
2008,06,23,01,05,9.50
2008,06,23,01,06,9.50
2008,06,23,01,07,9.40
2008,06,23,01,08,9.40
2008,06,23,01,09,9.40
2008,06,23,01,10,9.40
2008,06,23,01,11,9.40
2008,06,23,01,12,9.40
2008,06,23,01,13,9.40
2008,06,23,01,14,9.40
2008,06,23,01,15,9.30
2008,06,23,01,16,9.30
2008,06,23,01,17,9.30
2008,06,23,01,18,9.30
2008,06,23,01,19,9.20
2008,06,23,01,20,9.20
2008,06,23,01,21,9.20
2008,06,23,01,22,9.20
2008,06,23,01,23,9.20
2008,06,23,01,24,9.10
2008,06,23,01,25,9.10
2008,06,23,01,26,9.10
2008,06,23,01,27,9.00
2008,06,23,01,28,9.00
2008,06,23,01,29,9.00
2008,06,23,01,30,8.90
2008,06,23,01,31,8.90
2008,06,23,01,32,8.90
2008,06,23,01,33,8.80
2008,06,23,01,34,8.80
2008,06,23,01,35,8.80
2008,06,23,01,36,8.70
2008,06,23,01,37,8.70
2008,06,23,01,38,8.70
2008,06,23,01,39,8.70
2008,06,23,01,40,8.70
2008,06,23,01,41,8.60
2008,06,23,01,42,8.60
2008,06,23,01,43,8.60
2008,06,23,01,44,8.50
2008,06,23,01,45,8.50
2008,06,23,01,46,8.50
2008,06,23,01,47,8.40
2008,06,23,01,48,8.40
2008,06,23,01,49,8.40
2008,06,23,01,50,8.30
2008,06,23,01,51,8.30
2008,06,23,01,52,8.30
2008,06,23,01,53,8.20
2008,06,23,01,54,8.20
2008,06,23,01,55,8.20
2008,06,23,01,56,8.20
2008,06,23,01,57,8.20
2008,06,23,01,58,8.10
2008,06,23,01,59,8.10
2008,06,23,02,00,8.10
2008,06,23,02,01,8.10
2008,06,23,02,02,8.00
2008,06,23,02,03,8.00
2008,06,23,02,04,8.00
2008,06,23,02,05,8.00
2008,06,23,02,06,8.00
2008,06,23,02,07,7.90
2008,06,23,02,08,7.90
2008,06,23,02,09,7.90
2008,06,23,02,10,7.90
2008,06,23,02,11,7.80
2008,06,23,02,12,7.80
2008,06,23,02,13,7.80
2008,06,23,02,14,7.80
2008,06,23,02,15,7.70
2008,06,23,02,16,7.70
2008,06,23,02,17,7.60
2008,06,23,02,18,7.60
2008,06,23,02,19,7.50
2008,06,23,02,20,7.50
2008,06,23,02,21,7.40
2008,06,23,02,22,7.40
2008,06,23,02,23,7.30
2008,06,23,02,24,7.30
2008,06,23,02,25,7.30
2008,06,23,02,26,7.30
2008,06,23,02,27,7.20
2008,06,23,02,28,7.20
2008,06,23,02,29,7.10
2008,06,23,02,30,7.10
2008,06,23,02,31,7.00
2008,06,23,02,32,7.00
2008,06,23,02,33,7.00
2008,06,23,02,34,6.90
2008,06,23,02,35,6.90
2008,06,23,02,36,6.80
2008,06,23,02,37,6.80
2008,06,23,02,38,6.80
2008,06,23,02,39,6.80
2008,06,23,02,40,6.80
2008,06,23,02,41,6.80
2008,06,23,02,42,6.70
2008,06,23,02,43,6.70
2008,06,23,02,44,6.70
2008,06,23,02,45,6.60
2008,06,23,02,46,6.60
2008,06,23,02,47,6.60
2008,06,23,02,48,6.60
2008,06,23,02,49,6.60
2008,06,23,02,50,6.60
2008,06,23,02,51,6.60
2008,06,23,02,52,6.60
2008,06,23,02,53,6.60
2008,06,23,02,54,6.60
2008,06,23,02,55,6.60
2008,06,23,02,56,6.60
2008,06,23,02,57,6.60
2008,06,23,02,58,6.60
2008,06,23,02,59,6.60
2008,06,23,03,00,6.60
2008,06,23,03,01,6.60
2008,06,23,03,02,6.60
2008,06,23,03,03,6.60
2008,06,23,03,04,6.60
2008,06,23,03,05,6.60
2008,06,23,03,06,6.60
2008,06,23,03,07,6.60
2008,06,23,03,08,6.60
2008,06,23,03,09,6.60
2008,06,23,03,10,6.60
2008,06,23,03,11,6.60
2008,06,23,03,12,6.50
2008,06,23,03,13,6.40
2008,06,23,03,14,6.40
2008,06,23,03,15,6.40
2008,06,23,03,16,6.40
2008,06,23,03,17,6.40
2008,06,23,03,18,6.30
2008,06,23,03,19,6.30
2008,06,23,03,20,6.20
2008,06,23,03,21,6.20
2008,06,23,03,22,6.20
2008,06,23,03,23,6.20
2008,06,23,03,24,6.10
2008,06,23,03,25,6.10
2008,06,23,03,26,6.00
2008,06,23,03,27,6.00
2008,06,23,03,28,5.90
2008,06,23,03,29,5.90
2008,06,23,03,30,5.80
2008,06,23,03,31,5.80
2008,06,23,03,32,5.80
2008,06,23,03,33,5.70
2008,06,23,03,34,5.70
2008,06,23,03,35,5.70
2008,06,23,03,36,5.70
2008,06,23,03,37,5.70
2008,06,23,03,38,5.70
2008,06,23,03,39,5.60
2008,06,23,03,40,5.60
2008,06,23,03,41,5.60
2008,06,23,03,42,5.60
2008,06,23,03,43,5.50
2008,06,23,03,44,5.50
2008,06,23,03,45,5.50
2008,06,23,03,46,5.50
2008,06,23,03,47,5.50
2008,06,23,03,48,5.50
2008,06,23,03,49,5.50
2008,06,23,03,50,5.50
2008,06,23,03,51,5.50
2008,06,23,03,52,5.50
2008,06,23,03,53,5.50
2008,06,23,03,54,5.50
2008,06,23,03,55,5.50
2008,06,23,03,56,5.50
2008,06,23,03,57,5.40
2008,06,23,03,58,5.40
2008,06,23,03,59,5.40
2008,06,23,04,00,5.40
2008,06,23,04,01,5.40
2008,06,23,04,02,5.40
2008,06,23,04,03,5.30
2008,06,23,04,04,5.30
2008,06,23,04,05,5.30
2008,06,23,04,06,5.30
2008,06,23,04,07,5.30
2008,06,23,04,08,5.20
2008,06,23,04,09,5.20
2008,06,23,04,10,5.20
2008,06,23,04,11,5.10
2008,06,23,04,12,5.10
2008,06,23,04,13,5.10
2008,06,23,04,14,5.10
2008,06,23,04,15,5.10
2008,06,23,04,16,5.10
2008,06,23,04,17,5.10
2008,06,23,04,18,5.00
2008,06,23,04,19,4.90
2008,06,23,04,20,4.90
2008,06,23,04,21,4.90
2008,06,23,04,22,4.90
2008,06,23,04,23,4.90
2008,06,23,04,24,4.90
2008,06,23,04,25,4.90
2008,06,23,04,26,4.80
2008,06,23,04,27,4.80
2008,06,23,04,28,4.80
2008,06,23,04,29,4.80
2008,06,23,04,30,4.70
2008,06,23,04,31,4.70
2008,06,23,04,32,4.70
2008,06,23,04,33,4.70
2008,06,23,04,34,4.70
2008,06,23,04,35,4.70
2008,06,23,04,36,4.60
2008,06,23,04,37,4.60
2008,06,23,04,38,4.60
2008,06,23,04,39,4.60
2008,06,23,04,40,4.60
2008,06,23,04,41,4.60
2008,06,23,04,42,4.60
2008,06,23,04,43,4.50
2008,06,23,04,44,4.50
2008,06,23,04,45,4.50
2008,06,23,04,46,4.60
2008,06,23,04,47,4.60
2008,06,23,04,48,4.60
2008,06,23,04,49,4.60
2008,06,23,04,50,4.60
2008,06,23,04,51,4.60
2008,06,23,04,52,4.60
2008,06,23,04,53,4.60
2008,06,23,04,54,4.60
2008,06,23,04,55,4.60
2008,06,23,04,56,4.60
2008,06,23,04,57,4.60
2008,06,23,04,58,4.60
2008,06,23,04,59,4.60
2008,06,23,05,00,4.60
2008,06,23,05,01,4.60
2008,06,23,05,02,4.60
2008,06,23,05,03,4.60
2008,06,23,05,04,4.60
2008,06,23,05,05,4.60
2008,06,23,05,06,4.60
2008,06,23,05,07,4.60
2008,06,23,05,08,4.60
2008,06,23,05,09,4.60
2008,06,23,05,10,4.60
2008,06,23,05,11,4.60
2008,06,23,05,12,4.60
2008,06,23,05,13,4.60
2008,06,23,05,14,4.60
2008,06,23,05,15,4.50
2008,06,23,05,16,4.50
2008,06,23,05,17,4.50
2008,06,23,05,18,4.50
2008,06,23,05,19,4.50
2008,06,23,05,20,4.50
2008,06,23,05,21,4.50
2008,06,23,05,22,4.50
2008,06,23,05,23,4.50
2008,06,23,05,24,4.50
2008,06,23,05,25,4.50
2008,06,23,05,26,4.50
2008,06,23,05,27,4.50
2008,06,23,05,28,4.60
2008,06,23,05,29,4.60
2008,06,23,05,30,4.60
2008,06,23,05,31,4.60
2008,06,23,05,32,4.60
2008,06,23,05,33,4.60
2008,06,23,05,34,4.60
2008,06,23,05,35,4.60
2008,06,23,05,36,4.60
2008,06,23,05,37,4.60
2008,06,23,05,38,4.60
2008,06,23,05,39,4.70
2008,06,23,05,40,4.70
2008,06,23,05,41,4.70
2008,06,23,05,42,4.70
2008,06,23,05,43,4.70
2008,06,23,05,44,4.80
2008,06,23,05,45,4.80
2008,06,23,05,46,4.80
2008,06,23,05,47,4.80
2008,06,23,05,48,4.80
2008,06,23,05,49,4.80
2008,06,23,05,50,4.80
2008,06,23,05,51,4.80
2008,06,23,05,52,4.90
2008,06,23,05,53,4.90
2008,06,23,05,54,4.90
2008,06,23,05,55,4.90
2008,06,23,05,56,4.90
2008,06,23,05,57,4.90
2008,06,23,05,58,4.90
2008,06,23,05,59,4.90
2008,06,23,06,00,4.90
2008,06,23,06,01,4.90
2008,06,23,06,02,4.90
2008,06,23,06,03,4.80
2008,06,23,06,04,4.80
2008,06,23,06,05,4.80
2008,06,23,06,06,4.80
2008,06,23,06,07,4.80
2008,06,23,06,08,4.80
2008,06,23,06,09,4.80
2008,06,23,06,10,4.80
2008,06,23,06,11,4.80
2008,06,23,06,12,4.80
2008,06,23,06,13,4.80
2008,06,23,06,14,4.80
2008,06,23,06,15,4.90
2008,06,23,06,16,4.90
2008,06,23,06,17,5.00
2008,06,23,06,18,5.10
2008,06,23,06,19,5.20
2008,06,23,06,20,5.30
2008,06,23,06,21,5.40
2008,06,23,06,22,5.50
2008,06,23,06,23,5.60
2008,06,23,06,24,5.70
2008,06,23,06,25,5.70
2008,06,23,06,26,5.90
2008,06,23,06,27,6.00
2008,06,23,06,28,6.10
2008,06,23,06,29,6.20
2008,06,23,06,30,6.40
2008,06,23,06,31,6.50
2008,06,23,06,32,6.60
2008,06,23,06,33,6.70
2008,06,23,06,34,6.80
2008,06,23,06,35,6.80
2008,06,23,06,36,6.80
2008,06,23,06,37,6.90
2008,06,23,06,38,6.90
2008,06,23,06,39,6.90
2008,06,23,06,40,6.80
2008,06,23,06,41,6.80
2008,06,23,06,42,6.80
2008,06,23,06,43,6.80
2008,06,23,06,44,6.80
2008,06,23,06,45,6.80
2008,06,23,06,46,6.80
2008,06,23,06,47,6.80
2008,06,23,06,48,6.90
2008,06,23,06,49,6.90
2008,06,23,06,50,6.90
2008,06,23,06,51,7.00
2008,06,23,06,52,7.00
2008,06,23,06,53,7.10
2008,06,23,06,54,7.10
2008,06,23,06,55,7.20
2008,06,23,06,56,7.20
2008,06,23,06,57,7.30
2008,06,23,06,58,7.30
2008,06,23,06,59,7.40
2008,06,23,07,00,7.50
2008,06,23,07,01,7.50
2008,06,23,07,02,7.60
2008,06,23,07,03,7.70
2008,06,23,07,04,7.80
2008,06,23,07,05,7.80
2008,06,23,07,06,7.90
2008,06,23,07,07,8.00
2008,06,23,07,08,8.00
2008,06,23,07,09,8.10
2008,06,23,07,10,8.20
2008,06,23,07,11,8.30
2008,06,23,07,12,8.40
2008,06,23,07,13,8.50
2008,06,23,07,14,8.50
2008,06,23,07,15,8.60
2008,06,23,07,16,8.70
2008,06,23,07,17,8.70
2008,06,23,07,18,8.80
2008,06,23,07,19,8.90
2008,06,23,07,20,9.00
2008,06,23,07,21,9.10
2008,06,23,07,22,9.20
2008,06,23,07,23,9.20
2008,06,23,07,24,9.20
2008,06,23,07,25,9.30
2008,06,23,07,26,9.30
2008,06,23,07,27,9.30
2008,06,23,07,28,9.40
2008,06,23,07,29,9.40
2008,06,23,07,30,9.40
2008,06,23,07,31,9.40
2008,06,23,07,32,9.50
2008,06,23,07,33,9.50
2008,06,23,07,34,9.50
2008,06,23,07,35,9.60
2008,06,23,07,36,9.60
2008,06,23,07,37,9.60
2008,06,23,07,38,9.70
2008,06,23,07,39,9.70
2008,06,23,07,40,9.70
2008,06,23,07,41,9.80
2008,06,23,07,42,9.80
2008,06,23,07,43,9.90
2008,06,23,07,44,9.90
2008,06,23,07,45,9.90
2008,06,23,07,46,10.00
2008,06,23,07,47,10.10
2008,06,23,07,48,10.10
2008,06,23,07,49,10.10
2008,06,23,07,50,10.10
2008,06,23,07,51,10.10
2008,06,23,07,52,10.20
2008,06,23,07,53,10.20
2008,06,23,07,54,10.30
2008,06,23,07,55,10.40
2008,06,23,07,56,10.40
2008,06,23,07,57,10.40
2008,06,23,07,58,10.50
2008,06,23,07,59,10.60
2008,06,23,08,00,10.60
2008,06,23,08,01,10.60
2008,06,23,08,02,10.70
2008,06,23,08,03,10.80
2008,06,23,08,04,10.90
2008,06,23,08,05,10.90
2008,06,23,08,06,11.00
2008,06,23,08,07,11.10
2008,06,23,08,08,11.10
2008,06,23,08,09,11.20
2008,06,23,08,10,11.30
2008,06,23,08,11,11.40
2008,06,23,08,12,11.40
2008,06,23,08,13,11.50
2008,06,23,08,14,11.60
2008,06,23,08,15,11.60
2008,06,23,08,16,11.60
2008,06,23,08,17,11.60
2008,06,23,08,18,11.60
2008,06,23,08,19,11.60
2008,06,23,08,20,11.60
2008,06,23,08,21,11.60
2008,06,23,08,22,11.70
2008,06,23,08,23,11.70
2008,06,23,08,24,11.80
2008,06,23,08,25,11.80
2008,06,23,08,26,11.80
2008,06,23,08,27,11.90
2008,06,23,08,28,12.00
2008,06,23,08,29,12.10
2008,06,23,08,30,12.30
2008,06,23,08,31,12.40
2008,06,23,08,32,12.50
2008,06,23,08,33,12.60
2008,06,23,08,34,12.70
2008,06,23,08,35,12.80
2008,06,23,08,36,12.80
2008,06,23,08,37,12.80
2008,06,23,08,38,12.90
2008,06,23,08,39,13.00
2008,06,23,08,40,13.00
2008,06,23,08,41,13.00
2008,06,23,08,42,13.10
2008,06,23,08,43,13.10
2008,06,23,08,44,13.20
2008,06,23,08,45,13.20
2008,06,23,08,46,13.20
2008,06,23,08,47,13.30
2008,06,23,08,48,13.30
2008,06,23,08,49,13.40
2008,06,23,08,50,13.50
2008,06,23,08,51,13.60
2008,06,23,08,52,13.70
2008,06,23,08,53,13.80
2008,06,23,08,54,13.90
2008,06,23,08,55,14.00
2008,06,23,08,56,14.10
2008,06,23,08,57,14.20
2008,06,23,08,58,14.30
2008,06,23,08,59,14.40
2008,06,23,09,00,14.40
2008,06,23,09,01,14.50
2008,06,23,09,02,14.50
2008,06,23,09,03,14.50
2008,06,23,09,04,14.60
2008,06,23,09,05,14.60
2008,06,23,09,06,14.60
2008,06,23,09,07,14.50
2008,06,23,09,08,14.50
2008,06,23,09,09,14.50
2008,06,23,09,10,14.50
2008,06,23,09,11,14.50
2008,06,23,09,12,14.60
2008,06,23,09,13,14.60
2008,06,23,09,14,14.60
2008,06,23,09,15,14.70
2008,06,23,09,16,14.80
2008,06,23,09,17,14.80
2008,06,23,09,18,14.80
2008,06,23,09,19,14.80
2008,06,23,09,20,14.80
2008,06,23,09,21,14.80
2008,06,23,09,22,14.90
2008,06,23,09,23,15.00
2008,06,23,09,24,15.00
2008,06,23,09,25,15.00
2008,06,23,09,26,15.10
2008,06,23,09,27,15.10
2008,06,23,09,28,15.20
2008,06,23,09,29,15.30
2008,06,23,09,30,15.30
2008,06,23,09,31,15.40
2008,06,23,09,32,15.40
2008,06,23,09,33,15.50
2008,06,23,09,34,15.40
2008,06,23,09,35,15.40
2008,06,23,09,36,15.40
2008,06,23,09,37,15.40
2008,06,23,09,38,15.40
2008,06,23,09,39,15.40
2008,06,23,09,40,15.40
2008,06,23,09,41,15.40
2008,06,23,09,42,15.40
2008,06,23,09,43,15.40
2008,06,23,09,44,15.40
2008,06,23,09,45,15.40
2008,06,23,09,46,15.40
2008,06,23,09,47,15.40
2008,06,23,09,48,15.40
2008,06,23,09,49,15.50
2008,06,23,09,50,15.50
2008,06,23,09,51,15.60
2008,06,23,09,52,15.60
2008,06,23,09,53,15.70
2008,06,23,09,54,15.70
2008,06,23,09,55,15.80
2008,06,23,09,56,15.80
2008,06,23,09,57,15.70
2008,06,23,09,58,15.80
2008,06,23,09,59,15.80
2008,06,23,10,00,15.80
2008,06,23,10,01,15.80
2008,06,23,10,02,15.80
2008,06,23,10,03,15.80
2008,06,23,10,04,15.80
2008,06,23,10,05,15.70
2008,06,23,10,06,15.70
2008,06,23,10,07,15.60
2008,06,23,10,08,15.70
2008,06,23,10,09,15.70
2008,06,23,10,10,15.70
2008,06,23,10,11,15.70
2008,06,23,10,12,15.70
2008,06,23,10,13,15.60
2008,06,23,10,14,15.60
2008,06,23,10,15,15.60
2008,06,23,10,16,15.50
2008,06,23,10,17,15.50
2008,06,23,10,18,15.40
2008,06,23,10,19,15.30
2008,06,23,10,20,15.20
2008,06,23,10,21,15.10
2008,06,23,10,22,15.10
2008,06,23,10,23,14.90
2008,06,23,10,24,14.80
2008,06,23,10,25,14.70
2008,06,23,10,26,14.60
2008,06,23,10,27,14.60
2008,06,23,10,28,14.50
2008,06,23,10,29,14.40
2008,06,23,10,30,14.40
2008,06,23,10,31,14.40
2008,06,23,10,32,14.40
2008,06,23,10,33,14.30
2008,06,23,10,34,14.30
2008,06,23,10,35,14.20
2008,06,23,10,36,14.20
2008,06,23,10,37,14.20
2008,06,23,10,38,14.20
2008,06,23,10,39,14.20
2008,06,23,10,40,14.20
2008,06,23,10,41,14.30
2008,06,23,10,42,14.30
2008,06,23,10,43,14.20
2008,06,23,10,44,14.20
2008,06,23,10,45,14.20
2008,06,23,10,46,14.20
2008,06,23,10,47,14.20
2008,06,23,10,48,14.20
2008,06,23,10,49,14.20
2008,06,23,10,50,14.20
2008,06,23,10,51,14.20
2008,06,23,10,52,14.20
2008,06,23,10,53,14.20
2008,06,23,10,54,14.20
2008,06,23,10,55,14.20
2008,06,23,10,56,14.20
2008,06,23,10,57,14.20
2008,06,23,10,58,14.20
2008,06,23,10,59,14.20
2008,06,23,11,00,14.20
2008,06,23,11,01,14.30
2008,06,23,11,02,14.30
2008,06,23,11,03,14.40
2008,06,23,11,04,14.50
2008,06,23,11,05,14.60
2008,06,23,11,06,14.70
2008,06,23,11,07,14.70
2008,06,23,11,08,14.80
2008,06,23,11,09,14.80
2008,06,23,11,10,14.80
2008,06,23,11,11,14.80
2008,06,23,11,12,14.80
2008,06,23,11,13,14.70
2008,06,23,11,14,14.70
2008,06,23,11,15,14.70
2008,06,23,11,16,14.70
2008,06,23,11,17,14.80
2008,06,23,11,18,14.80
2008,06,23,11,19,14.80
2008,06,23,11,20,14.80
2008,06,23,11,21,14.80
2008,06,23,11,22,14.80
2008,06,23,11,23,14.80
2008,06,23,11,24,14.80
2008,06,23,11,25,14.80
2008,06,23,11,26,14.80
2008,06,23,11,27,14.80
2008,06,23,11,28,14.70
2008,06,23,11,29,14.70
2008,06,23,11,30,14.70
2008,06,23,11,31,14.60
2008,06,23,11,32,14.60
2008,06,23,11,33,14.50
2008,06,23,11,34,14.50
2008,06,23,11,35,14.50
2008,06,23,11,36,14.50
2008,06,23,11,37,14.60
2008,06,23,11,38,14.70
2008,06,23,11,39,14.80
2008,06,23,11,40,14.80
2008,06,23,11,41,14.80
2008,06,23,11,42,14.80
2008,06,23,11,43,14.80
2008,06,23,11,44,14.80
2008,06,23,11,45,14.80
2008,06,23,11,46,14.80
2008,06,23,11,47,14.80
2008,06,23,11,48,14.80
2008,06,23,11,49,14.80
2008,06,23,11,50,14.80
2008,06,23,11,51,14.80
2008,06,23,11,52,14.80
2008,06,23,11,53,14.90
2008,06,23,11,54,15.00
2008,06,23,11,55,15.00
2008,06,23,11,56,15.00
2008,06,23,11,57,14.90
2008,06,23,11,58,14.90
2008,06,23,11,59,14.90
2008,06,23,12,00,14.90
2008,06,23,12,01,15.00
2008,06,23,12,02,15.00
2008,06,23,12,03,15.00
2008,06,23,12,04,15.00
2008,06,23,12,05,15.10
2008,06,23,12,06,15.10
2008,06,23,12,07,15.20
2008,06,23,12,08,15.20
2008,06,23,12,09,15.30
2008,06,23,12,10,15.30
2008,06,23,12,11,15.30
2008,06,23,12,12,15.30
2008,06,23,12,13,15.30
2008,06,23,12,14,15.30
2008,06,23,12,15,15.30
2008,06,23,12,16,15.30
2008,06,23,12,17,15.30
2008,06,23,12,18,15.40
2008,06,23,12,19,15.40
2008,06,23,12,20,15.40
2008,06,23,12,21,15.50
2008,06,23,12,22,15.50
2008,06,23,12,23,15.50
2008,06,23,12,24,15.50
2008,06,23,12,25,15.60
2008,06,23,12,26,15.60
2008,06,23,12,27,15.60
2008,06,23,12,28,15.50
2008,06,23,12,29,15.50
2008,06,23,12,30,15.40
2008,06,23,12,31,15.40
2008,06,23,12,32,15.40
2008,06,23,12,33,15.40
2008,06,23,12,34,15.40
2008,06,23,12,35,15.40
2008,06,23,12,36,15.50
2008,06,23,12,37,15.50
2008,06,23,12,38,15.50
2008,06,23,12,39,15.30
2008,06,23,12,40,15.30
2008,06,23,12,41,15.30
2008,06,23,12,42,15.30
2008,06,23,12,43,15.30
2008,06,23,12,44,15.30
2008,06,23,12,45,15.40
2008,06,23,12,46,15.40
2008,06,23,12,47,15.30
2008,06,23,12,48,15.30
2008,06,23,12,49,15.30
2008,06,23,12,50,15.30
2008,06,23,12,51,15.30
2008,06,23,12,52,15.30
2008,06,23,12,53,15.30
2008,06,23,12,54,15.30
2008,06,23,12,55,15.30
2008,06,23,12,56,15.30
2008,06,23,12,57,15.30
2008,06,23,12,58,15.30
2008,06,23,12,59,15.20
2008,06,23,13,00,15.20
2008,06,23,13,01,15.10
2008,06,23,13,02,15.10
2008,06,23,13,03,15.10
2008,06,23,13,04,15.00
2008,06,23,13,05,15.00
2008,06,23,13,06,15.00
2008,06,23,13,07,15.00
2008,06,23,13,08,15.00
2008,06,23,13,09,15.00
2008,06,23,13,10,15.00
2008,06,23,13,11,15.00
2008,06,23,13,12,15.10
2008,06,23,13,13,15.10
2008,06,23,13,14,15.20
2008,06,23,13,15,15.30
2008,06,23,13,16,15.40
2008,06,23,13,17,15.50
2008,06,23,13,18,15.50
2008,06,23,13,19,15.40
2008,06,23,13,20,15.50
2008,06,23,13,21,15.50
2008,06,23,13,22,15.60
2008,06,23,13,23,15.60
2008,06,23,13,24,15.60
2008,06,23,13,25,15.70
2008,06,23,13,26,15.80
2008,06,23,13,27,15.80
2008,06,23,13,28,15.80
2008,06,23,13,29,15.80
2008,06,23,13,30,15.80
2008,06,23,13,31,15.80
2008,06,23,13,32,15.80
2008,06,23,13,33,15.80
2008,06,23,13,34,15.80
2008,06,23,13,35,15.80
2008,06,23,13,36,15.70
2008,06,23,13,37,15.70
2008,06,23,13,38,15.70
2008,06,23,13,39,15.80
2008,06,23,13,40,15.80
2008,06,23,13,41,15.80
2008,06,23,13,42,15.90
2008,06,23,13,43,16.00
2008,06,23,13,44,16.10
2008,06,23,13,45,16.10
2008,06,23,13,46,16.10
2008,06,23,13,47,16.10
2008,06,23,13,48,16.10
2008,06,23,13,49,16.20
2008,06,23,13,50,16.20
2008,06,23,13,51,16.30
2008,06,23,13,52,16.40
2008,06,23,13,53,16.50
2008,06,23,13,54,16.60
2008,06,23,13,55,16.60
2008,06,23,13,56,16.50
2008,06,23,13,57,16.40
2008,06,23,13,58,16.40
2008,06,23,13,59,16.30
2008,06,23,14,00,16.30
2008,06,23,14,01,16.40
2008,06,23,14,02,16.40
2008,06,23,14,03,16.40
2008,06,23,14,04,16.40
2008,06,23,14,05,16.40
2008,06,23,14,06,16.40
2008,06,23,14,07,16.50
2008,06,23,14,08,16.60
2008,06,23,14,09,16.60
2008,06,23,14,10,16.70
2008,06,23,14,11,16.60
2008,06,23,14,12,16.60
2008,06,23,14,13,16.60
2008,06,23,14,14,16.50
2008,06,23,14,15,16.40
2008,06,23,14,16,16.40
2008,06,23,14,17,16.40
2008,06,23,14,18,16.50
2008,06,23,14,19,16.70
2008,06,23,14,20,16.70
2008,06,23,14,21,16.80
2008,06,23,14,22,16.90
2008,06,23,14,23,17.00
2008,06,23,14,24,17.10
2008,06,23,14,25,17.20
2008,06,23,14,26,17.20
2008,06,23,14,27,17.20
2008,06,23,14,28,17.30
2008,06,23,14,29,17.30
2008,06,23,14,30,17.30
2008,06,23,14,31,17.30
2008,06,23,14,32,17.20
2008,06,23,14,33,17.30
2008,06,23,14,34,17.30
2008,06,23,14,35,17.30
2008,06,23,14,36,17.30
2008,06,23,14,37,17.30
2008,06,23,14,38,17.30
2008,06,23,14,39,17.40
2008,06,23,14,40,17.40
2008,06,23,14,41,17.30
2008,06,23,14,42,17.20
2008,06,23,14,43,17.20
2008,06,23,14,44,17.20
2008,06,23,14,45,17.20
2008,06,23,14,46,17.30
2008,06,23,14,47,17.30
2008,06,23,14,48,17.20
2008,06,23,14,49,17.20
2008,06,23,14,50,17.30
2008,06,23,14,51,17.30
2008,06,23,14,52,17.40
2008,06,23,14,53,17.50
2008,06,23,14,54,17.60
2008,06,23,14,55,17.70
2008,06,23,14,56,17.90
2008,06,23,14,57,18.10
2008,06,23,14,58,18.30
2008,06,23,14,59,18.30
2008,06,23,15,00,18.40
2008,06,23,15,01,18.50
2008,06,23,15,02,18.60
2008,06,23,15,03,18.60
2008,06,23,15,04,18.70
2008,06,23,15,05,18.80
2008,06,23,15,06,18.90
2008,06,23,15,07,19.00
2008,06,23,15,08,19.10
2008,06,23,15,09,19.10
2008,06,23,15,10,19.00
2008,06,23,15,11,18.90
2008,06,23,15,12,18.90
2008,06,23,15,13,19.00
2008,06,23,15,14,19.10
2008,06,23,15,15,19.10
2008,06,23,15,16,19.10
2008,06,23,15,17,19.10
2008,06,23,15,18,19.10
2008,06,23,15,19,19.10
2008,06,23,15,20,19.10
2008,06,23,15,21,19.20
2008,06,23,15,22,19.20
2008,06,23,15,23,19.20
2008,06,23,15,24,19.30
2008,06,23,15,25,19.30
2008,06,23,15,26,19.30
2008,06,23,15,27,19.10
2008,06,23,15,28,19.10
2008,06,23,15,29,18.90
2008,06,23,15,30,18.70
2008,06,23,15,31,18.60
2008,06,23,15,32,18.60
2008,06,23,15,33,18.60
2008,06,23,15,34,18.70
2008,06,23,15,35,18.70
2008,06,23,15,36,18.70
2008,06,23,15,37,18.60
2008,06,23,15,38,18.70
2008,06,23,15,39,18.60
2008,06,23,15,40,18.70
2008,06,23,15,41,18.70
2008,06,23,15,42,18.70
2008,06,23,15,43,18.70
2008,06,23,15,44,18.60
2008,06,23,15,45,18.60
2008,06,23,15,46,18.60
2008,06,23,15,47,18.60
2008,06,23,15,48,18.50
2008,06,23,15,49,18.40
2008,06,23,15,50,18.20
2008,06,23,15,51,18.10
2008,06,23,15,52,18.00
2008,06,23,15,53,17.90
2008,06,23,15,54,17.90
2008,06,23,15,55,17.90
2008,06,23,15,56,17.90
2008,06,23,15,57,17.90
2008,06,23,15,58,18.10
2008,06,23,15,59,18.20
2008,06,23,16,00,18.20
2008,06,23,16,01,18.20
2008,06,23,16,02,18.30
2008,06,23,16,03,18.30
2008,06,23,16,04,18.30
2008,06,23,16,05,18.20
2008,06,23,16,06,18.20
2008,06,23,16,07,18.20
2008,06,23,16,08,18.20
2008,06,23,16,09,18.30
2008,06,23,16,10,18.40
2008,06,23,16,11,18.50
2008,06,23,16,12,18.50
2008,06,23,16,13,18.50
2008,06,23,16,14,18.50
2008,06,23,16,15,18.60
2008,06,23,16,16,18.60
2008,06,23,16,17,18.60
2008,06,23,16,18,18.30
2008,06,23,16,19,18.20
2008,06,23,16,20,18.10
2008,06,23,16,21,17.90
2008,06,23,16,22,17.90
2008,06,23,16,23,17.90
2008,06,23,16,24,17.80
2008,06,23,16,25,17.70
2008,06,23,16,26,17.70
2008,06,23,16,27,17.60
2008,06,23,16,28,17.60
2008,06,23,16,29,17.50
2008,06,23,16,30,17.50
2008,06,23,16,31,17.40
2008,06,23,16,32,17.30
2008,06,23,16,33,17.30
2008,06,23,16,34,17.40
2008,06,23,16,35,17.40
2008,06,23,16,36,17.40
2008,06,23,16,37,17.30
2008,06,23,16,38,17.20
2008,06,23,16,39,17.10
2008,06,23,16,40,17.10
2008,06,23,16,41,17.10
2008,06,23,16,42,17.20
2008,06,23,16,43,17.20
2008,06,23,16,44,17.20
2008,06,23,16,45,17.30
2008,06,23,16,46,17.30
2008,06,23,16,47,17.30
2008,06,23,16,48,17.20
2008,06,23,16,49,17.20
2008,06,23,16,50,17.20
2008,06,23,16,51,17.20
2008,06,23,16,52,17.20
2008,06,23,16,53,17.20
2008,06,23,16,54,17.20
2008,06,23,16,55,17.20
2008,06,23,16,56,17.30
2008,06,23,16,57,17.30
2008,06,23,16,58,17.30
2008,06,23,16,59,17.30
2008,06,23,17,00,17.30
2008,06,23,17,01,17.20
2008,06,23,17,02,17.10
2008,06,23,17,03,17.00
2008,06,23,17,04,16.90
2008,06,23,17,05,16.90
2008,06,23,17,06,16.70
2008,06,23,17,07,16.70
2008,06,23,17,08,16.70
2008,06,23,17,09,16.70
2008,06,23,17,10,16.70
2008,06,23,17,11,16.60
2008,06,23,17,12,16.50
2008,06,23,17,13,16.40
2008,06,23,17,14,16.40
2008,06,23,17,15,16.40
2008,06,23,17,16,16.40
2008,06,23,17,17,16.40
2008,06,23,17,18,16.40
2008,06,23,17,19,16.40
2008,06,23,17,20,16.40
2008,06,23,17,21,16.40
2008,06,23,17,22,16.40
2008,06,23,17,23,16.30
2008,06,23,17,24,16.30
2008,06,23,17,25,16.20
2008,06,23,17,26,16.20
2008,06,23,17,27,16.20
2008,06,23,17,28,16.10
2008,06,23,17,29,16.10
2008,06,23,17,30,16.20
2008,06,23,17,31,16.20
2008,06,23,17,32,16.30
2008,06,23,17,33,16.30
2008,06,23,17,34,16.40
2008,06,23,17,35,16.40
2008,06,23,17,36,16.40
2008,06,23,17,37,16.40
2008,06,23,17,38,16.40
2008,06,23,17,39,16.40